{"data":{"norad_id":60320,"epoch":"2026-05-24T20:40:01.356384Z","epoch_age_seconds":83674,"freshness":"FRESH","line1":"1 60320U 24133V   26144.86112681  .00000413  00000+0  26050-4 0  9998","line2":"2 60320  53.1618 303.1694 0000998 106.7957 253.3153 15.30198396103308","mean_motion":15.30198396,"eccentricity":9.98e-5,"inclination_deg":53.1618,"raan_deg":303.1694,"arg_perigee_deg":106.7957,"mean_anomaly_deg":253.3153,"bstar":2.605e-5,"rev_number":10330,"period_min":94.105444350498,"perigee_km":474.53589366389,"apogee_km":475.90382369288,"semimajor_km":6853.3568586784,"source":"CELESTRAK","updated_at":"2026-05-25T13:38:19.232004Z"}}